Weather History for Toronto, ON

Change the Weather History Date:

Tuesday, April 9, 2013

  Actual Average Record
Temperature  
Mean Temperature 46 °F -  
Max Temperature 53 °F 53 °F 62 °F (2008)
Min Temperature 39 °F 39 °F 17 °F (1997)
Degree Days  
Heating Degree Days 19    
Moisture  
Dew Point 42 °F    
Average Humidity 89    
Maximum Humidity 100    
Minimum Humidity 60    
Precipitation  
Precipitation 0.47 in 0.08 in - ()
Sea Level Pressure  
Sea Level Pressure 29.99 in    
Wind  
Wind Speed 8 mph ()    
Max Wind Speed 16 mph    
Max Gust Speed 21 mph    
Visibility 5.5 miles    
Events Rain    
Averages and records for this station are not official NWS values.
T = Trace of Precipitation, MM = Missing Value Source: Averaged Metar Reports

Daily Weather History Graph

Daily Weather History Graph

Search for Another Location

Airport:

Trip Planner

Search our weather history database for the weather conditions in past years. The results will help you decide how hot, cold, wet, or windy it might be!

Date:

Astronomy

Apr. 09, 2013 Rise Set
Actual Time 6:44 AM EDT 7:54 PM EDT
Civil Twilight 6:15 AM EDT 8:23 PM EDT
Nautical Twilight 5:40 AM EDT 8:59 PM EDT
Astronomical Twilight 5:03 AM EDT 9:36 PM EDT
Moon 6:07 AM EDT (4/9) 7:28 PM EDT (4/9)
Length of Visible Light 14h 08m
Length of Day
13h 09m
Waning Crescent, 1% of the Moon is Illuminated
Apr 9
Waning Crescent
Apr 10
New
Apr 18
First Quarter
Apr 25
Full
May 2
Last Quarter

Hourly Weather History & Observations

Time (EDT) Temp. Windchill Dew Point Humidity Pressure Visibility Wind Dir Wind Speed Gust Speed Precip Events Conditions
12:00 AM 41.0 °F 37.1 °F 39.2 °F 93% 29.80 in 9.0 mi ENE 5.8 mph - N/A   Scattered Clouds
12:28 AM 42.8 °F 38.0 °F 39.2 °F 87% 29.81 in 5.0 mi WSW 8.1 mph - N/A   Overcast
12:56 AM 41.0 °F 35.8 °F 39.2 °F 93% 29.83 in 2.2 mi WSW 8.1 mph - N/A   Overcast
1:00 AM 41.0 °F 36.4 °F 39.2 °F 93% 29.83 in 2.2 mi WSW 6.9 mph - N/A   Overcast
1:09 AM 41.0 °F 35.8 °F 39.2 °F 93% 29.83 in 2.0 mi WSW 8.1 mph - N/A   Overcast
1:40 AM 41.0 °F 33.9 °F 39.2 °F 93% 29.84 in 3.0 mi SW 12.7 mph - N/A   Overcast
2:00 AM 40 °F - 38 °F 92% 29.84 in 5 mi SW 10.4 mph - -   Mist
2:00 AM 39.2 °F 32.5 °F 39.2 °F 100% 29.84 in 5.0 mi SW 10.4 mph - N/A   Overcast
2:08 AM 41.0 °F 34.3 °F 39.2 °F 93% 29.84 in 6.0 mi SW 11.5 mph - N/A   Overcast
2:16 AM 41.0 °F 33.5 °F 39.2 °F 93% 29.84 in 5.0 mi SW 13.8 mph - N/A   Overcast
3:00 AM 42.8 °F 37.0 °F 41.0 °F 93% 29.87 in 3.0 mi WSW 10.4 mph - N/A   Overcast
3:11 AM 46.4 °F 39.8 °F 44.6 °F 93% 29.87 in 6.0 mi West 16.1 mph - N/A   Overcast
4:00 AM 48.2 °F - 42.8 °F 82% 29.92 in 9.0 mi NW 12.7 mph 20.7 mph N/A   Overcast
4:34 AM 46.4 °F 40.1 °F 39.2 °F 76% 29.96 in 9.0 mi WNW 15.0 mph - N/A   Mostly Cloudy
5:00 AM 44.6 °F 38.4 °F 39.2 °F 81% 29.99 in 9.0 mi West 12.7 mph - N/A   Clear
5:24 AM 42.8 °F 36.2 °F 39.2 °F 87% 30.00 in 9.0 mi WNW 12.7 mph 18.4 mph N/A   Mostly Cloudy
6:00 AM 44.6 °F 38.8 °F 39.2 °F 81% 30.04 in 9.0 mi WNW 11.5 mph - N/A   Overcast
6:40 AM 42.8 °F 39.3 °F 39.2 °F 87% 30.06 in 9.0 mi WNW 5.8 mph - N/A   Scattered Clouds
6:57 AM 42.8 °F 38.6 °F 39.2 °F 87% 30.07 in 9.0 mi WNW 6.9 mph - N/A   Mostly Cloudy
7:00 AM 42.8 °F 37.5 °F 39.2 °F 87% 30.08 in 9.0 mi NW 9.2 mph - N/A   Mostly Cloudy
7:52 AM 44.6 °F 40.2 °F 39.2 °F 81% 30.09 in 9.0 mi NW 8.1 mph - N/A   Scattered Clouds
8:00 AM 44 °F - 39 °F 78% 30.09 in 10 mi NW 8.1 mph - -  
8:00 AM 44.6 °F 40.7 °F 39.2 °F 81% 30.09 in 9.0 mi NNW 6.9 mph - N/A   Partly Cloudy
9:00 AM 46.4 °F 42.9 °F 39.2 °F 76% 30.11 in 9.0 mi NNW 6.9 mph - N/A   Scattered Clouds
9:06 AM 46.4 °F 43.5 °F 41.0 °F 81% 30.11 in 9.0 mi NNW 5.8 mph - N/A   Mostly Cloudy
9:30 AM 46.4 °F 43.5 °F 41.0 °F 81% 30.11 in 9.0 mi WNW 5.8 mph - N/A   Scattered Clouds
10:00 AM 44.6 °F 39.7 °F 41.0 °F 87% 30.11 in 9.0 mi SSW 9.2 mph - N/A   Partly Cloudy
11:00 AM 46.4 °F 42.4 °F 41.0 °F 81% 30.12 in 9.0 mi South 8.1 mph - N/A   Clear
12:00 PM 46.4 °F 41.5 °F 41.0 °F 81% 30.10 in 9.0 mi SSW 10.4 mph - N/A   Clear
1:00 PM 48.2 °F - 41.0 °F 76% 30.08 in 9.0 mi South 10.4 mph - N/A   Clear
2:00 PM 50 °F - 40 °F 60% 30.08 in 10 mi South 6.9 mph - -  
2:00 PM 50.0 °F - 41.0 °F 71% 30.08 in 9.0 mi South 6.9 mph - N/A   Clear
3:00 PM 53.6 °F - 41.0 °F 62% 30.04 in 9.0 mi Variable 4.6 mph - N/A   Mostly Cloudy
4:00 PM 50.0 °F - 41.0 °F 71% 30.03 in 9.0 mi ESE 3.5 mph - N/A   Mostly Cloudy
4:19 PM 50.0 °F - 41.0 °F 71% 30.04 in 9.0 mi Calm Calm - N/A Rain Light Rain
4:34 PM 50.0 °F - 44.6 °F 82% 30.04 in 5.0 mi Calm Calm - N/A Rain Light Rain
5:00 PM 48.2 °F - 44.6 °F 87% 30.02 in 5.0 mi East 3.5 mph - N/A Rain Light Rain
5:01 PM 48.2 °F - 44.6 °F 87% 30.02 in 6.0 mi East 3.5 mph - N/A Rain Light Rain
5:04 PM 48.2 °F - 44.6 °F 87% 30.02 in 4.0 mi ENE 4.6 mph - N/A Rain Light Rain
5:13 PM 48.2 °F - 44.6 °F 87% 30.01 in 6.0 mi East 5.8 mph - N/A Rain Light Rain
5:19 PM 48.2 °F - 44.6 °F 87% 30.01 in 5.0 mi ENE 5.8 mph - N/A Rain Light Rain
6:00 PM 46.4 °F 44.3 °F 44.6 °F 93% 30.04 in 4.0 mi SSW 4.6 mph - N/A Rain Light Rain
6:07 PM 46.4 °F - 44.6 °F 93% 30.03 in 2.5 mi South 2.3 mph - N/A Rain Light Rain
7:00 PM 44.6 °F 41.4 °F 42.8 °F 93% 29.99 in 2.2 mi East 5.8 mph - N/A Rain Light Rain
7:16 PM 44.6 °F 40.7 °F 42.8 °F 93% 29.99 in 1.8 mi ENE 6.9 mph - N/A Rain Rain
7:37 PM 44.6 °F 40.2 °F 42.8 °F 93% 29.98 in 2.0 mi ENE 8.1 mph - N/A Rain Light Rain
7:43 PM 44.6 °F 39.2 °F 44.6 °F 100% 29.96 in 1.8 mi ENE 10.4 mph - N/A Rain Light Rain
8:00 PM 45 °F - 45 °F 98% 29.95 in 2 mi East 8.1 mph - - Rain Light Rain
8:00 PM 44.6 °F 39.7 °F 44.6 °F 100% 29.95 in 1.8 mi East 9.2 mph - N/A Rain Light Rain
8:07 PM 44.6 °F 39.2 °F 44.6 °F 100% 29.94 in 2.0 mi ENE 10.4 mph - N/A Rain Light Rain
8:14 PM 44.6 °F 39.2 °F 44.6 °F 100% 29.94 in 1.8 mi ENE 10.4 mph - N/A Rain Light Rain
8:28 PM 44.6 °F 38.8 °F 44.6 °F 100% 29.94 in 1.8 mi ENE 11.5 mph - N/A Rain Light Rain
9:00 PM 44.6 °F 39.7 °F 44.6 °F 100% 29.95 in 1.8 mi East 9.2 mph - N/A Rain Light Rain
9:24 PM 44.6 °F 39.7 °F 44.6 °F 100% 29.97 in 2.0 mi East 9.2 mph - N/A Rain Light Rain
9:28 PM 44.6 °F 38.8 °F 44.6 °F 100% 29.96 in 2.2 mi East 11.5 mph - N/A Rain Light Rain
9:43 PM 44.6 °F 39.7 °F 42.8 °F 93% 29.97 in 3.0 mi East 9.2 mph - N/A Rain Light Rain
9:51 PM 42.8 °F 38.6 °F 42.8 °F 100% 29.99 in 5.0 mi East 6.9 mph - N/A Rain Light Rain
9:53 PM 42.8 °F 38.6 °F 42.8 °F 100% 30.00 in 6.0 mi ENE 6.9 mph - N/A Rain Light Rain
9:56 PM 42.8 °F 37.5 °F 42.8 °F 100% 29.99 in 5.0 mi East 9.2 mph - N/A Rain Light Rain
10:00 PM 42.8 °F 37.0 °F 42.8 °F 100% 29.99 in 4.0 mi ENE 10.4 mph - N/A Rain Light Rain
10:43 PM 44.6 °F 40.7 °F 42.8 °F 93% 30.00 in 3.0 mi ENE 6.9 mph - N/A Rain Light Rain
10:53 PM 44.6 °F 40.7 °F 42.8 °F 93% 29.99 in 2.5 mi East 6.9 mph - N/A Rain Light Rain
11:00 PM 44.6 °F 40.7 °F 42.8 °F 93% 29.99 in 2.5 mi East 6.9 mph - N/A Rain Light Rain
11:15 PM 44.6 °F 40.7 °F 42.8 °F 93% 29.99 in 2.5 mi East 6.9 mph - N/A Rain Light Rain
11:18 PM 44.6 °F 41.4 °F 42.8 °F 93% 29.99 in 3.0 mi East 5.8 mph - N/A Rain Light Rain
11:48 PM 42.8 °F 37.5 °F 42.8 °F 100% 29.98 in 2.5 mi East 9.2 mph - N/A Rain Light Rain